Location: Oberkirch
(48.5323°N, 8.0787°E)
Time: 15:28:24
(UTC+00:00)

SR - Pass Details

Date: 24 February 2026
Orbit: 573 x 848 km, 66.7° (Epoch: 7 March)

Event Time Altitude Azimuth Distance (km) Brightness Sun altitude
Exits shadow 02:35:25 16° 44° (NE) 1,622 ? -36.6°
Drops below altitude 10° 02:36:25 10° 41° (NE) 2,008 ? -36.5°
Sets 02:38:48 0° 38° (NE) 2,962 ? -36.1°
